• In Uzbekistan
  • List of Countries
  • For 7 days
  • Water Temperature
  • Weather Map
  • Weather Widgets
  • user-avatar
    Login

    Hourly Weather Solden

    Today, 4 April, Saturday

    Time Temperature Precipitation Wind Pressure Humidity
    00:00 -6°C° 0 mm 1 mps 579 mmHg 83%
    01:00 -7°C° 0 mm 1 mps 579 mmHg 81%
    02:00 -7°C° 0 mm 1 mps 579 mmHg 80%
    03:00 -8°C° 0 mm 1 mps 579 mmHg 79%
    04:00 -8°C° 0 mm 1 mps 579 mmHg 78%
    05:00 -7°C° 0 mm 1 mps 580 mmHg 75%
    06:00 -7°C° 0 mm 1 mps 580 mmHg 73%
    07:00 -4°C° 0 mm 1 mps 581 mmHg 70%
    08:00 -2°C° 0 mm 1 mps 582 mmHg 66%
    09:00 0°C° 0 mm 1 mps 583 mmHg 61%
    10:00 +2°C° 0 mm 1 mps 584 mmHg 56%
    11:00 +2°C° 0 mm 1 mps 584 mmHg 56%
    12:00 +3°C° 0 mm 1 mps 585 mmHg 55%
    13:00 +4°C° 0 mm 1 mps 585 mmHg 54%
    14:00 +4°C° 0 mm 1 mps 585 mmHg 55%
    15:00 +4°C° 0 mm 1 mps 585 mmHg 56%
    16:00 +4°C° 0 mm 1 mps 585 mmHg 56%
    17:00 +2°C° 0 mm 1 mps 584 mmHg 65%
    18:00 0°C° 0 mm 1 mps 583 mmHg 74%
    19:00 -2°C° 0 mm 1 mps 582 mmHg 82%
    20:00 -3°C° 0 mm 1 mps 583 mmHg 83%
    21:00 -3°C° 0 mm 1 mps 583 mmHg 83%
    22:00 -5°C° 0 mm 0 mps 583 mmHg 83%
    23:00 -5°C° 0 mm 0 mps 583 mmHg 84%

    Tomorrow, 5 April, Sunday

    Time Temperature Precipitation Wind Pressure Humidity
    00:00 -4°C° 0 mm 1 mps 583 mmHg 85%
    01:00 -4°C° 0 mm 1 mps 583 mmHg 86%
    02:00 -5°C° 0 mm 0 mps 583 mmHg 84%
    03:00 -5°C° 0 mm 0 mps 583 mmHg 83%
    04:00 -5°C° 0 mm 0 mps 583 mmHg 82%
    05:00 -4°C° 0 mm 0 mps 584 mmHg 78%
    06:00 -4°C° 0 mm 0 mps 584 mmHg 75%
    07:00 -4°C° 0 mm 0 mps 584 mmHg 71%
    08:00 -2°C° 0 mm 0 mps 585 mmHg 68%
    09:00 +1°C° 0 mm 1 mps 586 mmHg 65%
    10:00 +3°C° 0 mm 1 mps 586 mmHg 62%
    11:00 +3°C° 0 mm 1 mps 587 mmHg 61%
    12:00 +4°C° 0 mm 1 mps 587 mmHg 59%
    13:00 +4°C° 0 mm 2 mps 587 mmHg 57%
    14:00 +4°C° 0 mm 2 mps 587 mmHg 58%
    15:00 +4°C° 0 mm 2 mps 586 mmHg 58%
    16:00 +4°C° 0 mm 2 mps 586 mmHg 58%
    17:00 +3°C° 0 mm 1 mps 585 mmHg 67%
    18:00 +1°C° 0 mm 1 mps 585 mmHg 75%
    19:00 -1°C° 0 mm 1 mps 584 mmHg 83%
    20:00 -1°C° 0 mm 1 mps 584 mmHg 84%
    21:00 -2°C° 0 mm 1 mps 584 mmHg 85%
    22:00 -2°C° 0 mm 1 mps 584 mmHg 87%
    23:00 -2°C° 0 mm 1 mps 584 mmHg 87%

    Day after tomorrow, 6 April, Monday

    Time Temperature Precipitation Wind Pressure Humidity
    00:00 -3°C° 0 mm 1 mps 584 mmHg 88%
    01:00 -3°C° 0 mm 1 mps 584 mmHg 89%
    02:00 -3°C° 0 mm 1 mps 584 mmHg 88%
    03:00 -4°C° 0 mm 1 mps 584 mmHg 87%
    04:00 -4°C° 0 mm 1 mps 584 mmHg 87%
    05:00 -4°C° 0 mm 0 mps 584 mmHg 83%
    06:00 -4°C° 0 mm 0 mps 585 mmHg 80%
    07:00 -3°C° 0 mm 0 mps 585 mmHg 77%
    08:00 0°C° 0 mm 1 mps 586 mmHg 70%
    09:00 +2°C° 0 mm 1 mps 587 mmHg 63%
    10:00 +4°C° 0 mm 1 mps 587 mmHg 56%
    11:00 +5°C° 0 mm 1 mps 588 mmHg 52%
    12:00 +6°C° 0 mm 1 mps 588 mmHg 49%
    13:00 +6°C° 0 mm 2 mps 588 mmHg 45%
    14:00 +6°C° 0 mm 2 mps 588 mmHg 45%
    15:00 +5°C° 0 mm 2 mps 588 mmHg 45%
    16:00 +6°C° 0 mm 1 mps 588 mmHg 45%
    17:00 +4°C° 0 mm 1 mps 587 mmHg 54%
    18:00 +2°C° 0 mm 1 mps 586 mmHg 64%
    19:00 0°C° 0 mm 1 mps 585 mmHg 73%
    20:00 0°C° 0 mm 1 mps 586 mmHg 75%
    21:00 -2°C° 0 mm 0 mps 586 mmHg 77%
    22:00 -2°C° 0 mm 0 mps 586 mmHg 79%
    23:00 -3°C° 0 mm 0 mps 586 mmHg 80%

    7 April, Tuesday

    Time Temperature Precipitation Wind Pressure Humidity
    00:00 -3°C° 0 mm 0 mps 586 mmHg 81%
    01:00 -2°C° 0 mm 1 mps 586 mmHg 82%
    02:00 -2°C° 0 mm 1 mps 586 mmHg 81%
    03:00 -2°C° 0 mm 1 mps 586 mmHg 80%
    04:00 -2°C° 0 mm 1 mps 586 mmHg 79%
    05:00 -2°C° 0 mm 1 mps 586 mmHg 75%
    06:00 -1°C° 0 mm 1 mps 587 mmHg 72%
    07:00 0°C° 0 mm 1 mps 587 mmHg 68%
    08:00 +2°C° 0 mm 1 mps 588 mmHg 62%
    09:00 +4°C° 0 mm 1 mps 589 mmHg 55%
    10:00 +6°C° 0 mm 1 mps 590 mmHg 49%
    11:00 +7°C° 0 mm 1 mps 590 mmHg 46%
    12:00 +8°C° 0 mm 1 mps 591 mmHg 43%
    13:00 +8°C° 0 mm 2 mps 591 mmHg 41%
    14:00 +8°C° 0 mm 2 mps 591 mmHg 41%
    15:00 +8°C° 0 mm 2 mps 591 mmHg 41%
    16:00 +7°C° 0 mm 2 mps 590 mmHg 42%
    17:00 +6°C° 0 mm 1 mps 589 mmHg 53%
    18:00 +4°C° 0 mm 1 mps 588 mmHg 64%
    19:00 +1°C° 0 mm 1 mps 587 mmHg 75%
    20:00 +1°C° 0 mm 1 mps 587 mmHg 78%
    21:00 -1°C° 0 mm 0 mps 587 mmHg 81%
    22:00 -1°C° 0 mm 0 mps 587 mmHg 85%
    23:00 -2°C° 0 mm 0 mps 587 mmHg 86%

    8 April, Wednesday

    Time Temperature Precipitation Wind Pressure Humidity
    00:00 -2°C° 0 mm 0 mps 587 mmHg 87%
    01:00 -2°C° 0 mm 0 mps 587 mmHg 89%
    02:00 -3°C° 0 mm 0 mps 587 mmHg 89%
    03:00 -3°C° 0 mm 0 mps 587 mmHg 88%
    04:00 -3°C° 0 mm 0 mps 586 mmHg 88%
    05:00 -2°C° 0 mm 0 mps 587 mmHg 85%
    06:00 -1°C° 0 mm 0 mps 587 mmHg 81%
    07:00 -1°C° 0 mm 0 mps 587 mmHg 78%
    08:00 +1°C° 0 mm 0 mps 588 mmHg 71%
    09:00 +4°C° 0 mm 1 mps 589 mmHg 64%
    10:00 +6°C° 0 mm 1 mps 589 mmHg 56%
    11:00 +7°C° 0 mm 1 mps 589 mmHg 55%
    12:00 +7°C° 0 mm 1 mps 590 mmHg 54%
    13:00 +8°C° 0 mm 1 mps 590 mmHg 52%
    14:00 +8°C° 0.1 mm 1 mps 589 mmHg 54%
    15:00 +7°C° 0.1 mm 2 mps 589 mmHg 56%
    16:00 +6°C° 0.1 mm 2 mps 589 mmHg 58%
    17:00 +6°C° 0.2 mm 1 mps 588 mmHg 66%
    18:00 +4°C° 0.2 mm 1 mps 587 mmHg 74%
    19:00 +2°C° 0.2 mm 1 mps 586 mmHg 82%
    20:00 +1°C° 0.1 mm 0 mps 586 mmHg 83%
    21:00 0°C° 0.1 mm 0 mps 586 mmHg 85%
    22:00 0°C° 0.1 mm 0 mps 587 mmHg 87%
    23:00 -1°C° 0 mm 0 mps 586 mmHg 87%

    9 April, Thursday

    Time Temperature Precipitation Wind Pressure Humidity
    00:00 -1°C° 0 mm 0 mps 586 mmHg 87%
    01:00 -1°C° 0 mm 0 mps 586 mmHg 88%
    02:00 -1°C° 0 mm 0 mps 586 mmHg 88%
    03:00 -2°C° 0 mm 0 mps 586 mmHg 88%
    04:00 -1°C° 0 mm 1 mps 585 mmHg 88%
    05:00 0°C° 0 mm 1 mps 586 mmHg 85%
    06:00 +1°C° 0 mm 1 mps 586 mmHg 82%
    07:00 +1°C° 0 mm 1 mps 587 mmHg 80%
    08:00 +3°C° 0 mm 1 mps 587 mmHg 72%
    09:00 +5°C° 0 mm 1 mps 588 mmHg 64%
    10:00 +7°C° 0 mm 1 mps 589 mmHg 56%
    11:00 +8°C° 0 mm 1 mps 589 mmHg 52%
    12:00 +9°C° 0 mm 1 mps 589 mmHg 48%
    13:00 +10°C° 0 mm 1 mps 590 mmHg 43%
    14:00 +9°C° 0 mm 2 mps 589 mmHg 43%
    15:00 +9°C° 0 mm 2 mps 589 mmHg 42%
    16:00 +9°C° 0 mm 2 mps 589 mmHg 41%
    17:00 +8°C° 0 mm 1 mps 588 mmHg 52%
    18:00 +5°C° 0 mm 1 mps 587 mmHg 64%
    19:00 +3°C° 0 mm 1 mps 586 mmHg 75%
    20:00 +2°C° 0 mm 1 mps 586 mmHg 78%
    21:00 +1°C° 0 mm 0 mps 586 mmHg 82%
    22:00 0°C° 0 mm 0 mps 586 mmHg 85%
    23:00 0°C° 0 mm 0 mps 586 mmHg 86%
    Show more